{"data":{"norad_id":45735,"epoch":"2026-05-25T03:16:05.925216Z","epoch_age_seconds":59327,"freshness":"FRESH","line1":"1 45735U 20038F   26145.13617969  .00026088  00000+0  42162-3 0  9998","line2":"2 45735  53.0442 134.6348 0003149  77.5962 282.5399 15.52701814329394","mean_motion":15.52701814,"eccentricity":0.0003149,"inclination_deg":53.0442,"raan_deg":134.6348,"arg_perigee_deg":77.5962,"mean_anomaly_deg":282.5399,"bstar":0.00042162,"rev_number":32939,"period_min":92.741567441744,"perigee_km":406.70419158831,"apogee_km":410.97863059162,"semimajor_km":6786.97841109,"source":"CELESTRAK","updated_at":"2026-05-25T13:38:16.432481Z"}}